Regional Weather Roundup
Issued by NWS Bismarck, ND

Home | Current Version | Previous Version | Text Only | Print | Product List | Glossary On
Versions: 1 2 3 4 5 6 7 8 9 10 11 12 13 14 15 16 17 18 19 20 21 22 23 24 25 26 27 28 29 30 31 32 33 34 35 36 37 38 39 40 41 42 43 44 45 46 47 48 49 50
000
ASUS43 KBIS 270720
RWRBIS

NWR BROADCAST TEXT
NATIONAL WEATHER SERVICE BISMARCK ND
200 AM CDT FRI MAR 27 2015

NOTE: "FAIR" INDICATES FEW OR NO CLOUDS BELOW 12,000 FEET WITH NO
SIGNIFICANT WEATHER AND/OR OBSTRUCTIONS TO VISIBILITY.


CITY           SKY/WX    TMP DP  RH WIND       PRES   REMARKS
WILLISTON      CLOUDY    37  28  70 S6        30.09F
MINOT          MOCLDY    27  18  69 SE8       30.16F WCI  19
MINOT AFB      MOCLDY    27  23  85 S10       30.15F WCI  17
BISMARCK       MOCLDY    25  16  68 SE9       30.23F WCI  15
DICKINSON      CLOUDY    32  27  81 S12       30.09F
GARRISON         N/A     28  19  69 S12       30.18F WCI  18
HETTINGER ARPT CLOUDY    32  28  85 SE8       30.14F
JAMESTOWN      CLEAR     17  13  84 S5        30.26F WCI  10
BEACH          CLOUDY    34  32  93 S13       30.07F
CARRINGTON     FAIR      18  18 100 S9        30.25F WCI   6
CROSBY         FAIR      34  28  80 S15       30.08F
HARVEY         FAIR      21  18  86 S10       30.22F WCI  10
HAZEN          CLOUDY    28  18  64 S12       30.18F WCI  18
LINTON         FAIR      23  18  80 SE10      30.23F WCI  12
MANDAN         CLOUDY    25  16  68 SE9       30.22F WCI  15
OAKES            N/A     18  16  93 CALM      30.29S
RUGBY          FAIR      25  19  80 SE10G16   30.20F WCI  15
TIOGA          CLOUDY    32  27  80 S13G18    30.12F
WATFORD CITY   FAIR      36  28  75 S10       30.08F
$$

CITY           SKY/WX    TMP DP  RH WIND       PRES   REMARKS
GRAND FORKS    CLEAR     16  11  80 CALM      30.30F
GRAND FORKS AF CLEAR     14  11  89 W1        30.29F
DEVILS LAKE    CLEAR     19  16  86 S7        30.23F WCI  10
FARGO          CLEAR     11   5  77 NW3       30.31S
CANDO          FAIR      21  18  86 S10       30.23F WCI  10
CAVALIER       FAIR      19  10  68 SE5       30.29F WCI  13
GWINNER        SUNNY     19  14  79 CALM        N/A
ROLLA          FAIR      23  23 100 S10       30.20F WCI  12
WALHALLA         N/A     18  14  86 S5        30.29S WCI  11
$$

CITY           SKY/WX    TMP DP  RH WIND       PRES   REMARKS
ABERDEEN       CLEAR     15  12  88 CALM      30.30S
MOBRIDGE       MOCLDY    26  14  60 SE9       30.23R WCI  17
BUFFALO          N/A     33  30  88 S12       30.05F
RAPID CITY     CLOUDY    33  27  78 SE8       30.14F
GLASGOW        MOCLDY    40  32  73 E14       29.98F
SIDNEY         CLOUDY    37  30  75 SE7       30.07F
WOLF POINT     CLOUDY    39  34  82 E6        30.02F
GLENDIVE         N/A     39  34  81 S7        30.05F
MILES CITY     CLOUDY    44  31  60 S8        30.03F
BAKER          CLOUDY    37  31  78 SE15      30.07F
$$

CITY           SKY/WX    TMP DP  RH WIND       PRES   REMARKS
BILLINGS       MOCLDY    54  34  46 W12       30.11S
GREAT FALLS    PTCLDY    47  36  65 SW10      30.11F
REGINA         FLURRIES  32  30  93 SE14      30.02F
ESTEVAN        CLOUDY    32  25  74 SE8       30.08F
$$




USA.gov is the U.S. government's official web portal to all federal, state and local government web resources and services.